Location: Plainartige
(45.6866°N, 1.7993°E)
Time: 12:39:14
(UTC+00:00)

Gurwin Techsat 1B - Pass Details

Date: 06 July 2022
Orbit: 812 x 813 km, 98.8° (Epoch: 13 August)

Event Time Altitude Azimuth Distance (km) Brightness Sun altitude
Rises 03:25:23 0° 7° (N) 3,346 12.7 -7.0°
Reaches altitude 10° 03:27:53 10° 359° (N) 2,410 11.7 -6.6°
Maximum altitude 03:32:42 36° 294° (WNW) 1,272 9.5 -6.0°
Drops below altitude 10° 03:37:29 10° 230° (SW) 2,396 10.4 -5.4°
Enters shadow 03:38:23 - 226° (SW) 2,724 10.6 -5.3°
